NKS2606 KATL-KFLL

Flight info

Callsign NKS2606
Flight time 1h 41m
Altitude 39000
Route SMLTZ3 WALET ZPLEN TEEKY4
Aircraft A21N/M-SDE2E3FGHIRWXY/LB1

Departure

Time 2026-05-03 21:48
Airport Hartsfield Jackson Atlanta International Airport (KATL)

Arrival

Time 2026-05-03 23:30
Airport Fort Lauderdale Hollywood International Airport (KFLL)
Time Latitude Longitude Altitude Speed Heading
2026-05-03 21:28 33.63780 -84.42647 1009 ft 0 kts 89°
2026-05-03 21:39 33.63780 -84.42650 1009 ft 2 kts 89°
2026-05-03 21:39 33.63781 -84.42669 1009 ft 2 kts 92°
2026-05-03 21:39 33.63782 -84.42689 1009 ft 2 kts 99°
2026-05-03 21:40 33.63787 -84.42708 1009 ft 2 kts 118°
2026-05-03 21:40 33.63798 -84.42722 1009 ft 2 kts 142°
2026-05-03 21:40 33.63812 -84.42732 1009 ft 2 kts 169°
2026-05-03 21:40 33.63826 -84.42733 1009 ft 1 kts 180°
2026-05-03 21:41 33.63827 -84.42733 1009 ft 0 kts 180°
2026-05-03 21:42 33.63819 -84.42733 1009 ft 2 kts 180°
2026-05-03 21:42 33.63792 -84.42733 1009 ft 5 kts 180°
2026-05-03 21:43 33.63743 -84.42733 1009 ft 9 kts 180°
2026-05-03 21:43 33.63676 -84.42719 1010 ft 10 kts 141°
2026-05-03 21:43 33.63654 -84.42628 1010 ft 13 kts 91°
2026-05-03 21:43 33.63654 -84.42511 1010 ft 17 kts 89°
2026-05-03 21:44 33.63654 -84.42361 1010 ft 19 kts 89°
2026-05-03 21:44 33.63654 -84.42202 1010 ft 20 kts 90°
2026-05-03 21:44 33.63654 -84.42037 1010 ft 21 kts 90°
2026-05-03 21:44 33.63654 -84.41860 1009 ft 22 kts 90°
2026-05-03 21:45 33.63655 -84.41677 1009 ft 22 kts 90°
2026-05-03 21:45 33.63656 -84.41489 1009 ft 23 kts 89°
2026-05-03 21:45 33.63658 -84.41290 1009 ft 24 kts 89°
2026-05-03 21:45 33.63659 -84.41089 1009 ft 24 kts 90°
2026-05-03 21:46 33.63654 -84.40939 1009 ft 10 kts 111°
2026-05-03 21:46 33.63597 -84.40906 1009 ft 10 kts 178°
2026-05-03 21:46 33.63559 -84.40906 1010 ft 4 kts 182°
2026-05-03 21:46 33.63501 -84.40921 1010 ft 9 kts 210°
2026-05-03 21:47 33.63472 -84.40994 1010 ft 20 kts 267°
2026-05-03 21:47 33.63470 -84.41410 1009 ft 79 kts 270°
2026-05-03 21:47 33.63470 -84.42320 1011 ft 139 kts 270°
2026-05-03 21:47 33.63467 -84.43645 1155 ft 169 kts 268°
2026-05-03 21:48 33.63461 -84.45135 1476 ft 182 kts 270°
2026-05-03 21:48 33.63448 -84.46652 2236 ft 178 kts 270°
2026-05-03 21:48 33.63434 -84.48107 3000 ft 181 kts 271°
2026-05-03 21:48 33.63426 -84.49721 3335 ft 206 kts 271°
2026-05-03 21:49 33.63425 -84.51555 3581 ft 236 kts 271°
2026-05-03 21:49 33.63426 -84.53602 4115 ft 251 kts 271°
2026-05-03 21:49 33.63425 -84.55698 4982 ft 255 kts 270°
2026-05-03 21:49 33.63419 -84.57840 5831 ft 261 kts 269°
2026-05-03 21:50 33.63119 -84.60005 6772 ft 266 kts 253°
2026-05-03 21:50 33.62222 -84.61967 7620 ft 274 kts 230°
2026-05-03 21:50 33.60710 -84.63268 8451 ft 284 kts 202°
2026-05-03 21:50 33.58741 -84.63532 9304 ft 293 kts 171°
2026-05-03 21:51 33.56839 -84.62603 10112 ft 301 kts 150°
2026-05-03 21:51 33.55034 -84.61180 10529 ft 321 kts 146°
2026-05-03 21:51 33.53138 -84.59594 10842 ft 343 kts 146°
2026-05-03 21:51 33.51114 -84.57919 11178 ft 363 kts 147°
2026-05-03 21:52 33.49023 -84.56218 11772 ft 372 kts 147°
2026-05-03 21:52 33.46859 -84.54475 12527 ft 377 kts 147°
2026-05-03 21:52 33.44670 -84.52721 13292 ft 381 kts 148°
2026-05-03 21:52 33.42451 -84.50949 14024 ft 385 kts 148°
2026-05-03 21:53 33.40214 -84.49166 14665 ft 389 kts 148°
2026-05-03 21:53 33.37940 -84.47355 15349 ft 393 kts 148°
2026-05-03 21:53 33.35656 -84.45539 16013 ft 396 kts 148°
2026-05-03 21:53 33.33351 -84.43709 16672 ft 400 kts 148°
2026-05-03 21:54 33.31056 -84.41887 17291 ft 403 kts 149°
2026-05-03 21:54 33.28713 -84.40027 17930 ft 406 kts 149°
2026-05-03 21:54 33.26343 -84.38148 18538 ft 410 kts 149°
2026-05-03 21:54 33.23959 -84.36258 19073 ft 413 kts 149°
2026-05-03 21:55 33.21555 -84.34355 19594 ft 417 kts 149°
2026-05-03 21:55 33.19129 -84.32434 20101 ft 420 kts 149°
2026-05-03 21:55 33.16684 -84.30500 20627 ft 423 kts 149°
2026-05-03 21:55 33.14221 -84.28553 21123 ft 426 kts 149°
2026-05-03 21:56 33.11739 -84.26593 21637 ft 429 kts 149°
2026-05-03 21:56 33.09241 -84.24621 22129 ft 432 kts 149°
2026-05-03 21:56 33.06730 -84.22639 22610 ft 435 kts 149°
2026-05-03 21:56 33.04195 -84.20641 23107 ft 438 kts 149°
2026-05-03 21:57 33.01677 -84.18673 23581 ft 441 kts 152°
2026-05-03 21:57 32.98977 -84.16955 24011 ft 438 kts 161°
2026-05-03 21:57 32.96133 -84.15649 24428 ft 438 kts 165°
2026-05-03 21:57 32.93251 -84.14456 24835 ft 440 kts 165°
2026-05-03 21:58 32.90350 -84.13274 25229 ft 442 kts 166°
2026-05-03 21:58 32.87433 -84.12085 25622 ft 444 kts 166°
2026-05-03 21:58 32.84508 -84.10888 26017 ft 446 kts 166°
2026-05-03 21:58 32.81568 -84.09683 26382 ft 448 kts 166°
2026-05-03 21:59 32.78653 -84.08487 26730 ft 450 kts 166°
2026-05-03 21:59 32.75684 -84.07269 27079 ft 452 kts 166°
2026-05-03 21:59 32.72714 -84.06050 27395 ft 453 kts 167°
2026-05-03 21:59 32.69727 -84.04825 27731 ft 454 kts 167°
2026-05-03 22:00 32.66730 -84.03597 28014 ft 457 kts 167°
2026-05-03 22:00 32.63723 -84.02366 28360 ft 457 kts 167°
2026-05-03 22:00 32.60767 -84.01155 28812 ft 455 kts 167°
2026-05-03 22:00 32.57781 -83.99932 29305 ft 453 kts 168°
2026-05-03 22:01 32.54805 -83.98714 29768 ft 452 kts 168°
2026-05-03 22:01 32.52840 -83.97912 30050 ft 451 kts 168°
2026-05-03 22:01 32.49877 -83.96702 30427 ft 450 kts 168°
2026-05-03 22:01 32.45970 -83.95107 30894 ft 447 kts 169°
2026-05-03 22:02 32.43044 -83.93913 31312 ft 444 kts 169°
2026-05-03 22:02 32.40126 -83.92725 31665 ft 442 kts 169°
2026-05-03 22:02 32.37224 -83.91548 31971 ft 440 kts 170°
2026-05-03 22:02 32.34311 -83.90454 32268 ft 437 kts 172°
2026-05-03 22:03 32.31411 -83.89411 32588 ft 435 kts 172°
2026-05-03 22:03 32.29490 -83.88725 32799 ft 434 kts 172°
2026-05-03 22:03 32.26599 -83.87692 33125 ft 433 kts 173°
2026-05-03 22:03 32.23718 -83.86662 33461 ft 432 kts 173°
2026-05-03 22:04 32.19924 -83.85305 33857 ft 429 kts 173°
2026-05-03 22:04 32.17069 -83.84283 34109 ft 427 kts 173°
2026-05-03 22:04 32.14231 -83.83268 34350 ft 426 kts 173°
2026-05-03 22:04 32.12349 -83.82596 34476 ft 426 kts 173°
2026-05-03 22:05 32.09515 -83.81585 34645 ft 426 kts 173°
2026-05-03 22:05 32.06673 -83.80572 34799 ft 427 kts 174°
2026-05-03 22:05 32.03828 -83.79557 34963 ft 427 kts 174°
2026-05-03 22:05 32.00987 -83.78544 35127 ft 427 kts 174°
2026-05-03 22:06 31.98147 -83.77532 35299 ft 426 kts 174°
2026-05-03 22:06 31.94388 -83.76193 35513 ft 426 kts 174°
2026-05-03 22:06 31.89671 -83.74515 35752 ft 426 kts 174°
2026-05-03 22:07 31.86835 -83.73506 35902 ft 425 kts 174°
2026-05-03 22:07 31.84001 -83.72499 36050 ft 425 kts 174°
2026-05-03 22:07 31.81168 -83.71494 36181 ft 425 kts 174°
2026-05-03 22:07 31.78339 -83.70490 36310 ft 425 kts 174°
2026-05-03 22:08 31.75503 -83.69485 36436 ft 425 kts 174°
2026-05-03 22:08 31.72676 -83.68483 36561 ft 425 kts 174°
2026-05-03 22:08 31.69840 -83.67477 36689 ft 425 kts 174°
2026-05-03 22:08 31.67052 -83.66436 36821 ft 427 kts 173°
2026-05-03 22:09 31.64230 -83.65354 36924 ft 427 kts 173°
2026-05-03 22:09 31.61403 -83.64265 37004 ft 427 kts 174°
2026-05-03 22:10 31.52923 -83.61007 37259 ft 429 kts 174°
2026-05-03 22:10 31.47240 -83.58831 37419 ft 430 kts 174°
2026-05-03 22:11 31.41548 -83.56653 37594 ft 431 kts 174°
2026-05-03 22:11 31.35840 -83.54472 37680 ft 432 kts 174°
2026-05-03 22:12 31.30131 -83.52292 37912 ft 430 kts 175°
2026-05-03 22:12 31.24478 -83.50138 38031 ft 431 kts 175°
2026-05-03 22:13 31.18762 -83.47965 38141 ft 432 kts 175°
2026-05-03 22:13 31.13043 -83.45791 38259 ft 433 kts 175°
2026-05-03 22:14 31.07309 -83.43614 38319 ft 434 kts 175°
2026-05-03 22:14 31.04441 -83.42525 38426 ft 433 kts 175°
2026-05-03 22:14 31.01622 -83.41456 38509 ft 432 kts 175°
2026-05-03 22:15 30.95888 -83.39286 38591 ft 434 kts 175°
2026-05-03 22:15 30.90167 -83.37123 38706 ft 434 kts 175°
2026-05-03 22:16 30.84413 -83.34950 38769 ft 435 kts 175°
2026-05-03 22:16 30.78642 -83.32773 38824 ft 436 kts 175°
2026-05-03 22:17 30.72922 -83.30616 38931 ft 435 kts 175°
2026-05-03 22:17 30.67216 -83.27874 38967 ft 449 kts 168°
2026-05-03 22:18 30.61538 -83.24802 39030 ft 451 kts 168°
2026-05-03 22:18 30.55850 -83.21729 39096 ft 451 kts 168°
2026-05-03 22:19 30.50192 -83.18685 39129 ft 452 kts 168°
2026-05-03 22:19 30.44481 -83.15617 39106 ft 452 kts 168°
2026-05-03 22:20 30.38786 -83.12561 39132 ft 450 kts 169°
2026-05-03 22:20 30.33106 -83.09520 39137 ft 449 kts 169°
2026-05-03 22:21 30.27431 -83.06487 39127 ft 449 kts 169°
2026-05-03 22:21 30.21791 -83.03476 39125 ft 449 kts 169°
2026-05-03 22:22 30.16116 -83.00449 39120 ft 449 kts 169°
2026-05-03 22:22 30.10433 -82.97423 39120 ft 450 kts 169°
2026-05-03 22:23 30.04749 -82.94398 39117 ft 450 kts 169°
2026-05-03 22:23 29.99068 -82.91380 39113 ft 449 kts 169°
2026-05-03 22:24 29.93426 -82.88386 39112 ft 449 kts 169°
2026-05-03 22:24 29.87745 -82.85375 39104 ft 449 kts 169°
2026-05-03 22:25 29.82056 -82.82366 39101 ft 451 kts 169°
2026-05-03 22:25 29.76359 -82.79353 39103 ft 450 kts 169°
2026-05-03 22:26 29.70707 -82.76368 39096 ft 449 kts 169°
2026-05-03 22:26 29.65033 -82.73375 39098 ft 448 kts 169°
2026-05-03 22:27 29.59368 -82.70391 39095 ft 448 kts 169°
2026-05-03 22:27 29.53689 -82.67407 39101 ft 450 kts 169°
2026-05-03 22:28 29.48039 -82.64438 39087 ft 450 kts 169°
2026-05-03 22:28 29.42355 -82.61454 39091 ft 449 kts 169°
2026-05-03 22:29 29.36667 -82.58473 39085 ft 449 kts 169°
2026-05-03 22:29 29.30986 -82.55500 39069 ft 448 kts 169°
2026-05-03 22:30 29.25290 -82.53102 39085 ft 424 kts 183°
2026-05-03 22:30 29.22457 -82.52707 39095 ft 409 kts 191°
2026-05-03 22:30 29.19629 -82.52645 39093 ft 405 kts 193°
2026-05-03 22:31 29.13979 -82.52667 39079 ft 406 kts 193°
2026-05-03 22:31 29.08325 -82.52681 39082 ft 406 kts 193°
2026-05-03 22:32 29.02673 -82.52683 39051 ft 406 kts 193°
2026-05-03 22:32 28.97054 -82.52683 39073 ft 408 kts 192°
2026-05-03 22:33 28.91379 -82.52680 39074 ft 408 kts 192°
2026-05-03 22:33 28.85709 -82.52677 39073 ft 407 kts 192°
2026-05-03 22:34 28.80037 -82.52674 39080 ft 407 kts 192°
2026-05-03 22:34 28.74408 -82.52671 39029 ft 407 kts 192°
2026-05-03 22:35 28.68738 -82.52669 39077 ft 408 kts 192°
2026-05-03 22:35 28.63051 -82.52666 39078 ft 409 kts 192°
2026-05-03 22:36 28.57361 -82.52663 39072 ft 409 kts 192°
2026-05-03 22:36 28.51675 -82.52659 39072 ft 409 kts 192°
2026-05-03 22:37 28.45989 -82.52656 39073 ft 409 kts 192°
2026-05-03 22:37 28.40346 -82.52654 39072 ft 409 kts 192°
2026-05-03 22:38 28.34630 -82.52653 39076 ft 412 kts 192°
2026-05-03 22:38 28.28901 -82.52650 39068 ft 412 kts 192°
2026-05-03 22:39 28.23168 -82.52645 39071 ft 412 kts 192°
2026-05-03 22:39 28.17442 -82.52642 39067 ft 411 kts 192°
2026-05-03 22:40 28.11714 -82.52640 39056 ft 412 kts 192°
2026-05-03 22:40 28.05965 -82.52639 39054 ft 414 kts 192°
2026-05-03 22:41 28.00209 -82.52417 39057 ft 426 kts 184°
2026-05-03 22:41 27.97272 -82.51703 39056 ft 438 kts 176°
2026-05-03 22:41 27.94339 -82.50706 39054 ft 442 kts 175°
2026-05-03 22:42 27.88470 -82.48593 39035 ft 443 kts 175°
2026-05-03 22:42 27.82596 -82.46491 39031 ft 443 kts 175°
2026-05-03 22:43 27.76714 -82.44401 39041 ft 443 kts 175°
2026-05-03 22:43 27.70828 -82.42316 39044 ft 443 kts 175°
2026-05-03 22:44 27.64980 -82.40248 39051 ft 443 kts 175°
2026-05-03 22:44 27.59092 -82.38170 39054 ft 444 kts 175°
2026-05-03 22:45 27.53194 -82.36090 39055 ft 445 kts 175°
2026-05-03 22:45 27.47293 -82.34010 39047 ft 443 kts 175°
2026-05-03 22:46 27.41449 -82.31953 39048 ft 443 kts 175°
2026-05-03 22:46 27.35639 -82.29319 39057 ft 462 kts 165°
2026-05-03 22:47 27.30005 -82.25767 39057 ft 465 kts 163°
2026-05-03 22:47 27.24360 -82.22160 39021 ft 467 kts 163°
2026-05-03 22:48 27.18699 -82.18562 39052 ft 469 kts 163°
2026-05-03 22:48 27.13042 -82.14977 39059 ft 471 kts 163°
2026-05-03 22:49 27.07337 -82.11364 39033 ft 469 kts 163°
2026-05-03 22:49 27.04512 -82.09573 38572 ft 465 kts 163°
2026-05-03 22:49 27.01687 -82.07789 37749 ft 466 kts 163°
2026-05-03 22:49 26.98852 -82.06000 36910 ft 470 kts 162°
2026-05-03 22:50 26.96098 -82.03936 36203 ft 485 kts 151°
2026-05-03 22:50 26.93602 -82.01324 35496 ft 495 kts 145°
2026-05-03 22:50 26.91247 -81.98566 34810 ft 497 kts 143°
2026-05-03 22:50 26.88878 -81.95738 34103 ft 498 kts 143°
2026-05-03 22:51 26.86507 -81.92912 33265 ft 498 kts 143°
2026-05-03 22:51 26.84139 -81.90098 32784 ft 491 kts 143°
2026-05-03 22:51 26.81841 -81.87361 32781 ft 473 kts 143°
2026-05-03 22:51 26.79632 -81.84736 32782 ft 455 kts 143°
2026-05-03 22:52 26.77479 -81.82194 32384 ft 448 kts 144°
2026-05-03 22:52 26.75322 -81.79683 31727 ft 448 kts 144°
2026-05-03 22:52 26.73134 -81.77154 30737 ft 458 kts 143°
2026-05-03 22:52 26.70894 -81.74566 29630 ft 469 kts 142°
2026-05-03 22:53 26.68649 -81.71960 28723 ft 474 kts 141°
2026-05-03 22:53 26.66368 -81.69304 28098 ft 470 kts 141°
2026-05-03 22:53 26.64116 -81.66675 27529 ft 466 kts 140°
2026-05-03 22:53 26.62025 -81.63899 26946 ft 467 kts 135°
2026-05-03 22:54 26.60065 -81.61019 26403 ft 464 kts 134°
2026-05-03 22:54 26.58142 -81.58142 25880 ft 460 kts 134°
2026-05-03 22:54 26.56240 -81.55298 25368 ft 455 kts 134°
2026-05-03 22:54 26.54353 -81.52483 24863 ft 451 kts 134°
2026-05-03 22:55 26.52483 -81.49699 24347 ft 445 kts 134°
2026-05-03 22:55 26.50647 -81.46969 23654 ft 435 kts 134°
2026-05-03 22:55 26.48846 -81.44295 22773 ft 427 kts 134°
2026-05-03 22:55 26.47071 -81.41664 21861 ft 421 kts 133°
2026-05-03 22:56 26.45342 -81.39106 20998 ft 415 kts 133°
2026-05-03 22:56 26.43618 -81.36555 20137 ft 409 kts 133°
2026-05-03 22:56 26.41913 -81.34035 19299 ft 403 kts 133°
2026-05-03 22:56 26.40182 -81.31613 18479 ft 396 kts 135°
2026-05-03 22:57 26.38435 -81.29267 17560 ft 391 kts 135°
2026-05-03 22:57 26.36702 -81.26956 16662 ft 385 kts 135°
2026-05-03 22:57 26.34997 -81.24683 15777 ft 380 kts 135°
2026-05-03 22:57 26.33311 -81.22435 14932 ft 375 kts 134°
2026-05-03 22:58 26.31648 -81.20216 14136 ft 370 kts 134°
2026-05-03 22:58 26.30030 -81.18057 13342 ft 365 kts 134°
2026-05-03 22:58 26.28409 -81.15904 12568 ft 360 kts 134°
2026-05-03 22:58 26.26799 -81.13783 12142 ft 358 kts 134°
2026-05-03 22:59 26.25186 -81.11661 12029 ft 359 kts 134°
2026-05-03 22:59 26.23576 -81.09543 12015 ft 356 kts 134°
2026-05-03 22:59 26.22023 -81.07495 12010 ft 336 kts 134°
2026-05-03 22:59 26.20558 -81.05562 12013 ft 316 kts 134°
2026-05-03 23:00 26.19211 -81.03788 12014 ft 301 kts 135°
2026-05-03 23:00 26.17870 -81.02031 12017 ft 297 kts 135°
2026-05-03 23:00 26.16548 -81.00304 12015 ft 297 kts 135°
2026-05-03 23:00 26.15206 -80.98549 12018 ft 303 kts 136°
2026-05-03 23:01 26.13644 -80.96924 12008 ft 308 kts 152°
2026-05-03 23:01 26.11714 -80.96038 12016 ft 294 kts 177°
2026-05-03 23:01 26.09730 -80.96136 12002 ft 281 kts 201°
2026-05-03 23:01 26.08029 -80.97085 11998 ft 272 kts 223°
2026-05-03 23:02 26.06814 -80.98663 12004 ft 268 kts 243°
2026-05-03 23:02 26.06228 -81.00601 12003 ft 267 kts 262°
2026-05-03 23:02 26.06341 -81.02659 12003 ft 270 kts 282°
2026-05-03 23:02 26.07133 -81.04536 12006 ft 276 kts 300°
2026-05-03 23:03 26.08294 -81.06246 12004 ft 278 kts 304°
2026-05-03 23:03 26.09513 -81.07921 12003 ft 279 kts 304°
2026-05-03 23:03 26.10735 -81.09602 12008 ft 279 kts 304°
2026-05-03 23:03 26.11954 -81.11284 12008 ft 279 kts 304°
2026-05-03 23:04 26.13346 -81.12812 12005 ft 286 kts 319°
2026-05-03 23:04 26.15172 -81.13732 12007 ft 296 kts 343°
2026-05-03 23:04 26.17262 -81.13683 12008 ft 309 kts 10°
2026-05-03 23:04 26.19193 -81.12590 12008 ft 319 kts 38°
2026-05-03 23:05 26.20539 -81.10621 12008 ft 325 kts 66°
2026-05-03 23:05 26.20973 -81.08208 12010 ft 324 kts 95°
2026-05-03 23:05 26.20405 -81.05823 12012 ft 317 kts 123°
2026-05-03 23:05 26.19158 -81.03819 12014 ft 315 kts 133°
2026-05-03 23:06 26.17762 -81.01933 12011 ft 316 kts 134°
2026-05-03 23:06 26.16352 -81.00056 12011 ft 316 kts 134°
2026-05-03 23:06 26.14944 -80.98186 12009 ft 315 kts 137°
2026-05-03 23:06 26.13296 -80.96646 12008 ft 304 kts 157°
2026-05-03 23:07 26.11338 -80.95967 12013 ft 290 kts 182°
2026-05-03 23:07 26.09397 -80.96251 12004 ft 278 kts 205°
2026-05-03 23:07 26.07774 -80.97343 12004 ft 271 kts 226°
2026-05-03 23:07 26.06678 -80.98979 12004 ft 267 kts 246°
2026-05-03 23:08 26.06202 -81.00961 12001 ft 267 kts 266°
2026-05-03 23:08 26.06436 -81.03010 12003 ft 271 kts 286°
2026-05-03 23:08 26.07342 -81.04868 12007 ft 277 kts 301°
2026-05-03 23:08 26.08529 -81.06566 12003 ft 279 kts 304°
2026-05-03 23:09 26.09749 -81.08245 12003 ft 279 kts 304°
2026-05-03 23:09 26.10965 -81.09930 12009 ft 279 kts 303°
2026-05-03 23:09 26.12188 -81.11606 12008 ft 280 kts 306°
2026-05-03 23:09 26.13659 -81.13052 12005 ft 287 kts 323°
2026-05-03 23:10 26.15563 -81.13803 12008 ft 299 kts 348°
2026-05-03 23:10 26.17630 -81.13564 12007 ft 311 kts 15°
2026-05-03 23:10 26.19486 -81.12296 12009 ft 321 kts 43°
2026-05-03 23:10 26.20690 -81.10207 12008 ft 325 kts 71°
2026-05-03 23:11 26.20942 -81.07730 12007 ft 323 kts 100°
2026-05-03 23:11 26.20197 -81.05421 12013 ft 316 kts 126°
2026-05-03 23:11 26.18897 -81.03457 12010 ft 315 kts 133°
2026-05-03 23:11 26.17498 -81.01581 12009 ft 316 kts 134°
2026-05-03 23:12 26.16089 -80.99704 12009 ft 316 kts 134°
2026-05-03 23:12 26.14662 -80.97848 12005 ft 314 kts 140°
2026-05-03 23:12 26.12943 -80.96444 12006 ft 302 kts 162°
2026-05-03 23:12 26.10987 -80.95949 12009 ft 288 kts 186°
2026-05-03 23:13 26.09079 -80.96389 12003 ft 277 kts 209°
2026-05-03 23:13 26.07538 -80.97598 12003 ft 270 kts 230°
2026-05-03 23:13 26.06535 -80.99336 12005 ft 267 kts 250°
2026-05-03 23:13 26.06189 -81.01353 12002 ft 268 kts 270°
2026-05-03 23:14 26.06558 -81.03383 12005 ft 272 kts 290°
2026-05-03 23:14 26.07558 -81.05195 12005 ft 277 kts 302°
2026-05-03 23:14 26.08758 -81.06879 12003 ft 279 kts 304°
2026-05-03 23:14 26.09980 -81.08561 12003 ft 279 kts 304°
2026-05-03 23:15 26.11198 -81.10248 12005 ft 279 kts 304°
2026-05-03 23:15 26.12404 -81.11873 12003 ft 281 kts 308°
2026-05-03 23:15 26.13944 -81.13235 12003 ft 289 kts 327°
2026-05-03 23:15 26.15906 -81.13837 12005 ft 301 kts 353°
2026-05-03 23:16 26.17988 -81.13416 12006 ft 313 kts 20°
2026-05-03 23:16 26.19755 -81.11980 12007 ft 322 kts 48°
2026-05-03 23:16 26.20808 -81.09775 12004 ft 325 kts 76°
2026-05-03 23:16 26.20876 -81.07287 12006 ft 322 kts 105°
2026-05-03 23:17 26.19982 -81.05056 12017 ft 315 kts 129°
2026-05-03 23:17 26.18648 -81.03120 12010 ft 315 kts 134°
2026-05-03 23:17 26.17262 -81.01270 12008 ft 316 kts 134°
2026-05-03 23:17 26.15856 -80.99393 12008 ft 316 kts 134°
2026-05-03 23:18 26.14435 -80.97572 11964 ft 308 kts 134°
2026-05-03 23:18 26.13383 -80.95493 11493 ft 315 kts 108°
2026-05-03 23:18 26.12965 -80.93051 10802 ft 326 kts 98°
2026-05-03 23:18 26.12723 -80.90541 10306 ft 326 kts 97°
2026-05-03 23:19 26.12497 -80.88034 9879 ft 324 kts 97°
2026-05-03 23:19 26.12268 -80.85589 9503 ft 318 kts 97°
2026-05-03 23:19 26.12034 -80.83189 9351 ft 306 kts 97°
2026-05-03 23:19 26.11804 -80.80884 9123 ft 295 kts 97°
2026-05-03 23:20 26.11513 -80.78632 8802 ft 294 kts 101°
2026-05-03 23:20 26.11152 -80.76391 8511 ft 293 kts 102°
2026-05-03 23:20 26.10779 -80.74169 8235 ft 292 kts 102°
2026-05-03 23:20 26.10347 -80.71972 7959 ft 289 kts 113°
2026-05-03 23:21 26.09318 -80.70114 7698 ft 281 kts 130°
2026-05-03 23:21 26.08173 -80.68357 7385 ft 282 kts 121°
2026-05-03 23:21 26.07201 -80.66482 6772 ft 278 kts 133°
2026-05-03 23:21 26.06408 -80.64539 6409 ft 277 kts 102°
2026-05-03 23:22 26.05965 -80.60569 6010 ft 245 kts 84°
2026-05-03 23:22 26.06216 -80.58773 5821 ft 226 kts 81°
2026-05-03 23:22 26.06529 -80.57105 5553 ft 220 kts 75°
2026-05-03 23:23 26.06915 -80.55466 5281 ft 217 kts 72°
2026-05-03 23:23 26.07358 -80.53870 5001 ft 214 kts 70°
2026-05-03 23:23 26.07685 -80.52249 4422 ft 222 kts 89°
2026-05-03 23:23 26.07631 -80.50494 3834 ft 227 kts 94°
2026-05-03 23:24 26.07621 -80.48775 3281 ft 225 kts 88°
2026-05-03 23:24 26.07689 -80.47048 2719 ft 221 kts 85°
2026-05-03 23:24 26.07726 -80.45346 2108 ft 222 kts 91°
2026-05-03 23:24 26.07662 -80.43688 1991 ft 197 kts 88°
2026-05-03 23:25 26.07657 -80.42204 2318 ft 194 kts 89°
2026-05-03 23:25 26.07620 -80.40664 2608 ft 203 kts 94°
2026-05-03 23:25 26.07576 -80.39153 2639 ft 192 kts 84°
2026-05-03 23:25 26.07628 -80.37683 2677 ft 188 kts 78°
2026-05-03 23:26 26.07686 -80.36246 2724 ft 191 kts 89°
2026-05-03 23:26 26.07747 -80.34723 3012 ft 203 kts 86°
2026-05-03 23:26 26.07732 -80.33127 3283 ft 208 kts 90°
2026-05-03 23:26 26.07715 -80.31504 3440 ft 210 kts 89°
2026-05-03 23:27 26.07723 -80.29899 3448 ft 211 kts 89°
2026-05-03 23:27 26.07853 -80.28284 3347 ft 209 kts 73°
2026-05-03 23:27 26.08053 -80.26674 3114 ft 211 kts 80°
2026-05-03 23:27 26.08866 -80.25401 2951 ft 207 kts 41°
2026-05-03 23:28 26.09314 -80.24021 2710 ft 178 kts 114°
2026-05-03 23:28 26.08754 -80.22757 2232 ft 189 kts 120°
2026-05-03 23:28 26.07997 -80.21511 1390 ft 196 kts 117°
2026-05-03 23:28 26.07650 -80.20112 911 ft 180 kts 85°
2026-05-03 23:29 26.07693 -80.18791 540 ft 169 kts 85°
2026-05-03 23:29 26.07696 -80.17517 239 ft 157 kts 84°
2026-05-03 23:29 26.07686 -80.16362 60 ft 143 kts 86°
2026-05-03 23:29 26.07692 -80.15353 21 ft 99 kts 91°
2026-05-03 23:30 26.07664 -80.15001 22 ft 26 kts 118°
2026-05-03 23:30 26.07597 -80.14871 27 ft 0 kts 121°
2026-05-03 23:30 26.07593 -80.14864 28 ft 2 kts 121°
2026-05-03 23:30 26.07586 -80.14851 26 ft 0 kts 120°
2026-05-03 23:32 26.07558 -80.14832 27 ft 13 kts 165°
2026-05-03 23:32 26.07441 -80.14939 26 ft 26 kts 230°
2026-05-03 23:32 26.07318 -80.15086 23 ft 27 kts 221°
2026-05-03 23:33 26.07214 -80.15103 24 ft 10 kts 106°
2026-05-03 23:33 26.07200 -80.15086 28 ft 4 kts 154°
2026-05-03 23:33 26.07158 -80.15106 24 ft 11 kts 208°
2026-05-03 23:33 26.07085 -80.15125 29 ft 12 kts 184°
2026-05-03 23:34 26.06994 -80.15129 27 ft 14 kts 181°
2026-05-03 23:34 26.06884 -80.15131 27 ft 18 kts 180°
2026-05-03 23:34 26.06777 -80.15079 26 ft 20 kts 108°
2026-05-03 23:34 26.06770 -80.14889 25 ft 30 kts 89°
2026-05-03 23:35 26.06765 -80.14640 19 ft 28 kts 92°
2026-05-03 23:35 26.06761 -80.14436 20 ft 23 kts 90°
2026-05-03 23:35 26.06786 -80.14337 21 ft 10 kts 54°
2026-05-03 23:35 26.06847 -80.14298 21 ft 10 kts
2026-05-03 23:36 26.06883 -80.14297 21 ft 2 kts
2026-05-03 23:36 26.06886 -80.14297 21 ft 0 kts 360°